This demonstration page uses our WeatherBlox Daily Observations layout. Learn more.

38.89511, -77.03637

Hourly Observations for September 28, 2015

Temp ( °F °C ) Dew Point ( °F °C ) Humidity (%) Winds ( mph kmh ) Pressure ( in mb ) Visibility ( mi km ) Precip ( " mm )
12:52 am 00:52 Cloudy 70 21 63 17 78 78 NE 10 17 30.27 1025 10 16.09344 0 0
1:35 am 01:35 Cloudy 68 20 63 17 83 83 ENE 8 13 30.24 1024 10 16.09344 0 0
1:52 am 01:52 Cloudy 68 20 63 17 83 83 NE 8 13 30.24 1024 10 16.09344 0 0
2:52 am 02:52 Cloudy 68 20 63 17 83 83 NE 8 13 30.24 1024 10 16.09344 0 0
3:52 am 03:52 Cloudy 68 20 63 17 83 83 ENE 8 13 30.21 1023 10 16.09344 0 0
4:52 am 04:52 Cloudy 66 19 64 18 94 94 NE 8 13 30.21 1023 10 16.09344 0 0
5:18 am 05:18 Cloudy 66 19 64 18 94 94 NE 7 11 30.21 1023 10 16.09344 0 0
5:52 am 05:52 Cloudy 66 19 64 18 94 94 NE 6 9 30.21 1023 7 11.265408 0 0
6:12 am 06:12 Cloudy 66 19 64 18 94 94 NE 8 13 30.21 1023 7 11.265408 0 0
6:52 am 06:52 Cloudy 66 19 64 18 94 94 ENE 6 9 30.21 1023 7 11.265408 0 0
7:52 am 07:52 Cloudy 68 20 64 18 88 88 ENE 7 11 30.21 1023 10 16.09344 0 0
8:18 am 08:18 Cloudy 68 20 64 18 88 88 ENE 8 13 30.21 1023 10 16.09344 0 0
8:52 am 08:52 Cloudy 70 21 64 18 83 83 ENE 8 13 30.21 1023 10 16.09344 0 0
9:34 am 09:34 Cloudy 72 22 64 18 78 78 NE 5 7 30.21 1023 10 16.09344 0 0
9:52 am 09:52 Cloudy 72 22 64 18 78 78 NE 7 11 30.21 1023 10 16.09344 0 0
10:41 am 10:41 Cloudy 75 24 66 19 74 74 ENE 6 9 30.21 1023 10 16.09344 0 0
10:52 am 10:52 Cloudy 73 23 66 19 78 78 ENE 6 9 30.21 1023 10 16.09344 0 0
10:56 am 10:56 Cloudy 75 24 66 19 74 74 ENE 7 11 30.21 1023 10 16.09344 0 0
11:34 am 11:34 Cloudy 75 24 66 19 74 74 ESE 7 11 30.21 1023 10 16.09344 0 0
11:52 am 11:52 Cloudy 79 26 66 19 65 65 N 6 9 30.21 1023 10 16.09344 0 0
12:52 pm 12:52 Cloudy 79 26 66 19 65 65 E 3 6 30.18 1022 10 16.09344 0 0
1:52 pm 13:52 Cloudy 81 27 66 19 62 62 SE 7 11 30.15 1021 10 16.09344 0 0
2:52 pm 14:52 Cloudy 81 27 66 19 62 62 SE 6 9 30.12 1020 10 16.09344 0 0
3:52 pm 15:52 Cloudy 81 27 66 19 62 62 S 5 7 30.12 1020 10 16.09344 0 0
4:52 pm 16:52 Mostly Cloudy 82 28 64 18 55 55 ESE 7 11 30.09 1019 10 16.09344 0 0
5:52 pm 17:52 Mostly Cloudy 81 27 66 19 62 62 ESE 9 15 30.09 1019 10 16.09344 0 0
6:52 pm 18:52 Mostly Cloudy 79 26 66 19 65 65 ESE 9 15 30.09 1019 10 16.09344 0 0
7:52 pm 19:52 Cloudy 75 24 68 20 78 78 E 6 9 30.09 1019 10 16.09344 0 0
8:52 pm 20:52 Cloudy 75 24 68 20 78 78 E 5 7 30.09 1019 10 16.09344 0 0
9:52 pm 21:52 Mostly Cloudy 73 23 68 20 83 83 Calm 30.09 1019 10 16.09344 0 0
10:41 pm 22:41 Mostly Cloudy 73 23 68 20 83 83 NE 5 7 30.09 1019 10 16.09344 0 0
10:52 pm 22:52 Mostly Cloudy 73 23 68 20 83 83 NE 5 7 30.09 1019 10 16.09344 0 0
11:00 pm 23:00 Mostly Cloudy 73 23 68 20 83 83 NE 5 7 30.09 1019 10 16.09344 0 0
11:52 pm 23:52 Mostly Cloudy 73 23 68 20 83 83 Calm 30.09 1019 10 16.09344 0 0

Powered by AerisWeather